TimeMST,TemperatureF,Dew PointF,Humidity,Sea Level PressureIn,VisibilityMPH,Wind Direction,Wind SpeedMPH,Gust SpeedMPH,PrecipitationIn,Events,Conditions,WindDirDegrees,DateUTC
12:53 AM,35.1,25.0,67,30.09,10.0,Calm,Calm,-,N/A,,Clear,0,2013-11-28 07:53:00
1:53 AM,34.0,23.0,64,30.09,10.0,SSW,3.5,-,N/A,,Clear,200,2013-11-28 08:53:00
2:53 AM,35.1,24.1,64,30.09,10.0,NNE,5.8,-,N/A,,Clear,30,2013-11-28 09:53:00
3:53 AM,34.0,24.1,67,30.09,10.0,Calm,Calm,-,N/A,,Clear,0,2013-11-28 10:53:00
4:53 AM,30.0,24.1,79,30.12,10.0,Calm,Calm,-,N/A,,Clear,0,2013-11-28 11:53:00
5:53 AM,30.9,21.9,69,30.12,10.0,SSW,5.8,-,N/A,,Clear,210,2013-11-28 12:53:00
6:53 AM,32.0,21.9,66,-9999,10.0,SSE,6.9,-,N/A,,Clear,150,2013-11-28 13:53:00
7:53 AM,30.9,21.0,67,30.16,10.0,South,4.6,-,N/A,,Clear,180,2013-11-28 14:53:00
8:53 AM,34.0,21.9,61,30.15,10.0,SSW,4.6,-,N/A,,Clear,210,2013-11-28 15:53:00
9:53 AM,39.0,26.1,60,30.14,10.0,WNW,4.6,-,N/A,,Clear,290,2013-11-28 16:53:00
10:53 AM,44.1,25.0,47,30.14,10.0,East,3.5,-,N/A,,Clear,80,2013-11-28 17:53:00
11:53 AM,46.0,26.1,46,30.12,10.0,Calm,Calm,-,N/A,,Clear,0,2013-11-28 18:53:00
12:53 PM,48.0,26.1,42,30.10,10.0,NW,3.5,-,N/A,,Clear,310,2013-11-28 19:53:00
1:53 PM,48.9,27.0,43,30.09,10.0,WNW,4.6,-,N/A,,Clear,290,2013-11-28 20:53:00
2:53 PM,46.0,30.0,54,30.09,9.0,West,5.8,-,N/A,,Clear,270,2013-11-28 21:53:00
3:53 PM,46.0,28.9,51,30.09,10.0,WNW,4.6,-,N/A,,Clear,290,2013-11-28 22:53:00
4:53 PM,42.1,28.0,58,30.12,10.0,West,5.8,-,N/A,,Clear,280,2013-11-28 23:53:00
5:53 PM,37.0,30.0,76,30.14,7.0,SSW,3.5,-,N/A,,Clear,200,2013-11-29 00:53:00
6:53 PM,36.0,28.9,76,30.16,6.0,SW,4.6,-,N/A,,Haze,220,2013-11-29 01:53:00
7:53 PM,35.1,30.0,82,30.18,6.0,South,4.6,-,N/A,,Haze,170,2013-11-29 02:53:00
8:53 PM,36.0,28.9,76,30.17,7.0,South,4.6,-,N/A,,Clear,190,2013-11-29 03:53:00
9:53 PM,34.0,26.1,73,30.16,10.0,South,3.5,-,N/A,,Clear,170,2013-11-29 04:53:00
10:53 PM,34.0,26.1,73,30.17,10.0,South,4.6,-,N/A,,Clear,180,2013-11-29 05:53:00
11:53 PM,34.0,24.1,67,30.18,10.0,Calm,Calm,-,N/A,,Clear,0,2013-11-29 06:53:00